Year,Month,Day,Hour,Minute,Value (Times are PST for temperature in C)
2009,06,28,00,00,10.80
2009,06,28,00,01,10.80
2009,06,28,00,02,10.80
2009,06,28,00,03,10.80
2009,06,28,00,04,10.80
2009,06,28,00,05,10.80
2009,06,28,00,06,10.80
2009,06,28,00,07,10.80
2009,06,28,00,08,10.80
2009,06,28,00,09,10.80
2009,06,28,00,10,10.80
2009,06,28,00,11,10.70
2009,06,28,00,12,10.70
2009,06,28,00,13,10.70
2009,06,28,00,14,10.70
2009,06,28,00,15,10.70
2009,06,28,00,16,10.70
2009,06,28,00,17,10.70
2009,06,28,00,18,10.70
2009,06,28,00,19,10.70
2009,06,28,00,20,10.70
2009,06,28,00,21,10.70
2009,06,28,00,22,10.70
2009,06,28,00,23,10.70
2009,06,28,00,24,10.60
2009,06,28,00,25,10.60
2009,06,28,00,26,10.60
2009,06,28,00,27,10.60
2009,06,28,00,28,10.60
2009,06,28,00,29,10.60
2009,06,28,00,30,10.60
2009,06,28,00,31,10.60
2009,06,28,00,32,10.50
2009,06,28,00,33,10.50
2009,06,28,00,34,10.50
2009,06,28,00,35,10.50
2009,06,28,00,36,10.50
2009,06,28,00,37,10.50
2009,06,28,00,38,10.50
2009,06,28,00,39,10.50
2009,06,28,00,40,10.50
2009,06,28,00,41,10.50
2009,06,28,00,42,10.40
2009,06,28,00,43,10.40
2009,06,28,00,44,10.40
2009,06,28,00,45,10.40
2009,06,28,00,46,10.40
2009,06,28,00,47,10.40
2009,06,28,00,48,10.40
2009,06,28,00,49,10.40
2009,06,28,00,50,10.40
2009,06,28,00,51,10.40
2009,06,28,00,52,10.40
2009,06,28,00,53,10.40
2009,06,28,00,54,10.40
2009,06,28,00,55,10.40
2009,06,28,00,56,10.40
2009,06,28,00,57,10.40
2009,06,28,00,58,10.40
2009,06,28,00,59,10.40
2009,06,28,01,00,10.40
2009,06,28,01,01,10.30
2009,06,28,01,02,10.30
2009,06,28,01,03,10.30
2009,06,28,01,04,10.30
2009,06,28,01,05,10.30
2009,06,28,01,06,10.30
2009,06,28,01,07,10.30
2009,06,28,01,08,10.30
2009,06,28,01,09,10.30
2009,06,28,01,10,10.30
2009,06,28,01,11,10.30
2009,06,28,01,12,10.30
2009,06,28,01,13,10.20
2009,06,28,01,14,10.20
2009,06,28,01,15,10.20
2009,06,28,01,16,10.20
2009,06,28,01,17,10.20
2009,06,28,01,18,10.20
2009,06,28,01,19,10.20
2009,06,28,01,20,10.20
2009,06,28,01,21,10.20
2009,06,28,01,22,10.20
2009,06,28,01,23,10.10
2009,06,28,01,24,10.10
2009,06,28,01,25,10.10
2009,06,28,01,26,10.10
2009,06,28,01,27,10.10
2009,06,28,01,28,10.10
2009,06,28,01,29,10.10
2009,06,28,01,30,10.10
2009,06,28,01,31,10.10
2009,06,28,01,32,10.00
2009,06,28,01,33,10.00
2009,06,28,01,34,9.90
2009,06,28,01,35,9.90
2009,06,28,01,36,9.90
2009,06,28,01,37,9.90
2009,06,28,01,38,9.90
2009,06,28,01,39,9.90
2009,06,28,01,40,9.80
2009,06,28,01,41,9.80
2009,06,28,01,42,9.80
2009,06,28,01,43,9.80
2009,06,28,01,44,9.80
2009,06,28,01,45,9.80
2009,06,28,01,46,9.70
2009,06,28,01,47,9.70
2009,06,28,01,48,9.70
2009,06,28,01,49,9.70
2009,06,28,01,50,9.70
2009,06,28,01,51,9.70
2009,06,28,01,52,9.70
2009,06,28,01,53,9.70
2009,06,28,01,54,9.70
2009,06,28,01,55,9.70
2009,06,28,01,56,9.60
2009,06,28,01,57,9.60
2009,06,28,01,58,9.60
2009,06,28,01,59,9.60
2009,06,28,02,00,9.60
2009,06,28,02,01,9.60
2009,06,28,02,02,9.60
2009,06,28,02,03,9.60
2009,06,28,02,04,9.60
2009,06,28,02,05,9.60
2009,06,28,02,06,9.60
2009,06,28,02,07,9.60
2009,06,28,02,08,9.60
2009,06,28,02,09,9.60
2009,06,28,02,10,9.60
2009,06,28,02,11,9.50
2009,06,28,02,12,9.40
2009,06,28,02,13,9.40
2009,06,28,02,14,9.40
2009,06,28,02,15,9.40
2009,06,28,02,16,9.40
2009,06,28,02,17,9.40
2009,06,28,02,18,9.40
2009,06,28,02,19,9.40
2009,06,28,02,20,9.40
2009,06,28,02,21,9.40
2009,06,28,02,22,9.30
2009,06,28,02,23,9.30
2009,06,28,02,24,9.30
2009,06,28,02,25,9.30
2009,06,28,02,26,9.30
2009,06,28,02,27,9.30
2009,06,28,02,28,9.30
2009,06,28,02,29,9.30
2009,06,28,02,30,9.30
2009,06,28,02,31,9.30
2009,06,28,02,32,9.20
2009,06,28,02,33,9.20
2009,06,28,02,34,9.20
2009,06,28,02,35,9.20
2009,06,28,02,36,9.20
2009,06,28,02,37,9.20
2009,06,28,02,38,9.20
2009,06,28,02,39,9.20
2009,06,28,02,40,9.20
2009,06,28,02,41,9.20
2009,06,28,02,42,9.20
2009,06,28,02,43,9.20
2009,06,28,02,44,9.20
2009,06,28,02,45,9.20
2009,06,28,02,46,9.20
2009,06,28,02,47,9.10
2009,06,28,02,48,9.10
2009,06,28,02,49,9.10
2009,06,28,02,50,9.10
2009,06,28,02,51,9.10
2009,06,28,02,52,9.00
2009,06,28,02,53,9.00
2009,06,28,02,54,8.90
2009,06,28,02,55,8.90
2009,06,28,02,56,8.90
2009,06,28,02,57,8.90
2009,06,28,02,58,8.90
2009,06,28,02,59,8.90
2009,06,28,03,00,8.80
2009,06,28,03,01,8.80
2009,06,28,03,02,8.80
2009,06,28,03,03,8.80
2009,06,28,03,04,8.80
2009,06,28,03,05,8.80
2009,06,28,03,06,8.80
2009,06,28,03,07,8.80
2009,06,28,03,08,8.80
2009,06,28,03,09,8.70
2009,06,28,03,10,8.70
2009,06,28,03,11,8.70
2009,06,28,03,12,8.70
2009,06,28,03,13,8.70
2009,06,28,03,14,8.70
2009,06,28,03,15,8.70
2009,06,28,03,16,8.70
2009,06,28,03,17,8.70
2009,06,28,03,18,8.70
2009,06,28,03,19,8.70
2009,06,28,03,20,8.70
2009,06,28,03,21,8.70
2009,06,28,03,22,8.70
2009,06,28,03,23,8.70
2009,06,28,03,24,8.70
2009,06,28,03,25,8.70
2009,06,28,03,26,8.70
2009,06,28,03,27,8.70
2009,06,28,03,28,8.70
2009,06,28,03,29,8.70
2009,06,28,03,30,8.70
2009,06,28,03,31,8.70
2009,06,28,03,32,8.70
2009,06,28,03,33,8.70
2009,06,28,03,34,8.70
2009,06,28,03,35,8.70
2009,06,28,03,36,8.70
2009,06,28,03,37,8.70
2009,06,28,03,38,8.70
2009,06,28,03,39,8.70
2009,06,28,03,40,8.70
2009,06,28,03,41,8.70
2009,06,28,03,42,8.70
2009,06,28,03,43,8.70
2009,06,28,03,44,8.70
2009,06,28,03,45,8.70
2009,06,28,03,46,8.70
2009,06,28,03,47,8.70
2009,06,28,03,48,8.70
2009,06,28,03,49,8.70
2009,06,28,03,50,8.70
2009,06,28,03,51,8.80
2009,06,28,03,52,8.80
2009,06,28,03,53,8.80
2009,06,28,03,54,8.80
2009,06,28,03,55,8.80
2009,06,28,03,56,8.80
2009,06,28,03,57,8.80
2009,06,28,03,58,8.80
2009,06,28,03,59,8.80
2009,06,28,04,00,8.80
2009,06,28,04,01,8.80
2009,06,28,04,02,8.80
2009,06,28,04,03,8.80
2009,06,28,04,04,8.80
2009,06,28,04,05,8.80
2009,06,28,04,06,8.80
2009,06,28,04,07,8.80
2009,06,28,04,08,8.80
2009,06,28,04,09,8.80
2009,06,28,04,10,8.80
2009,06,28,04,11,8.80
2009,06,28,04,12,8.80
2009,06,28,04,13,8.80
2009,06,28,04,14,8.80
2009,06,28,04,15,8.90
2009,06,28,04,16,8.90
2009,06,28,04,17,8.90
2009,06,28,04,18,8.90
2009,06,28,04,19,8.90
2009,06,28,04,20,8.90
2009,06,28,04,21,8.90
2009,06,28,04,22,8.90
2009,06,28,04,23,8.90
2009,06,28,04,24,8.90
2009,06,28,04,25,8.90
2009,06,28,04,26,8.90
2009,06,28,04,27,8.90
2009,06,28,04,28,8.90
2009,06,28,04,29,9.00
2009,06,28,04,30,9.00
2009,06,28,04,31,9.00
2009,06,28,04,32,8.90
2009,06,28,04,33,8.90
2009,06,28,04,34,9.00
2009,06,28,04,35,8.90
2009,06,28,04,36,8.90
2009,06,28,04,37,8.90
2009,06,28,04,38,8.90
2009,06,28,04,39,8.90
2009,06,28,04,40,8.90
2009,06,28,04,41,8.90
2009,06,28,04,42,8.90
2009,06,28,04,43,8.90
2009,06,28,04,44,8.90
2009,06,28,04,45,8.90
2009,06,28,04,46,8.90
2009,06,28,04,47,8.90
2009,06,28,04,48,8.90
2009,06,28,04,49,8.90
2009,06,28,04,50,8.80
2009,06,28,04,51,8.80
2009,06,28,04,52,8.80
2009,06,28,04,53,8.80
2009,06,28,04,54,8.80
2009,06,28,04,55,8.80
2009,06,28,04,56,8.80
2009,06,28,04,57,8.80
2009,06,28,04,58,8.80
2009,06,28,04,59,8.80
2009,06,28,05,00,8.80
2009,06,28,05,01,8.80
2009,06,28,05,02,8.80
2009,06,28,05,03,8.80
2009,06,28,05,04,8.80
2009,06,28,05,05,8.80
2009,06,28,05,06,8.80
2009,06,28,05,07,8.80
2009,06,28,05,08,8.80
2009,06,28,05,09,8.80
2009,06,28,05,10,8.70
2009,06,28,05,11,8.70
2009,06,28,05,12,8.70
2009,06,28,05,13,8.70
2009,06,28,05,14,8.70
2009,06,28,05,15,8.70
2009,06,28,05,16,8.70
2009,06,28,05,17,8.60
2009,06,28,05,18,8.60
2009,06,28,05,19,8.60
2009,06,28,05,20,8.60
2009,06,28,05,21,8.60
2009,06,28,05,22,8.60
2009,06,28,05,23,8.60
2009,06,28,05,24,8.60
2009,06,28,05,25,8.60
2009,06,28,05,26,8.60
2009,06,28,05,27,8.50
2009,06,28,05,28,8.50
2009,06,28,05,29,8.50
2009,06,28,05,30,8.50
2009,06,28,05,31,8.50
2009,06,28,05,32,8.50
2009,06,28,05,33,8.50
2009,06,28,05,34,8.50
2009,06,28,05,35,8.50
2009,06,28,05,36,8.50
2009,06,28,05,37,8.50
2009,06,28,05,38,8.50
2009,06,28,05,39,8.60
2009,06,28,05,40,8.60
2009,06,28,05,41,8.60
2009,06,28,05,42,8.60
2009,06,28,05,43,8.60
2009,06,28,05,44,8.60
2009,06,28,05,45,8.60
2009,06,28,05,46,8.60
2009,06,28,05,47,8.60
2009,06,28,05,48,8.60
2009,06,28,05,49,8.60
2009,06,28,05,50,8.60
2009,06,28,05,51,8.70
2009,06,28,05,52,8.70
2009,06,28,05,53,8.70
2009,06,28,05,54,8.70
2009,06,28,05,55,8.70
2009,06,28,05,56,8.70
2009,06,28,05,57,8.70
2009,06,28,05,58,8.80
2009,06,28,05,59,8.80
2009,06,28,06,00,8.80
2009,06,28,06,01,8.80
2009,06,28,06,02,8.80
2009,06,28,06,03,8.80
2009,06,28,06,04,8.80
2009,06,28,06,05,8.80
2009,06,28,06,06,8.90
2009,06,28,06,07,8.90
2009,06,28,06,08,8.90
2009,06,28,06,09,8.90
2009,06,28,06,10,8.90
2009,06,28,06,11,8.90
2009,06,28,06,12,9.00
2009,06,28,06,13,9.00
2009,06,28,06,14,9.10
2009,06,28,06,15,9.10
2009,06,28,06,16,9.10
2009,06,28,06,17,9.10
2009,06,28,06,18,9.10
2009,06,28,06,19,9.20
2009,06,28,06,20,9.20
2009,06,28,06,21,9.20
2009,06,28,06,22,9.20
2009,06,28,06,23,9.20
2009,06,28,06,24,9.30
2009,06,28,06,25,9.30
2009,06,28,06,26,9.30
2009,06,28,06,27,9.30
2009,06,28,06,28,9.30
2009,06,28,06,29,9.30
2009,06,28,06,30,9.30
2009,06,28,06,31,9.40
2009,06,28,06,32,9.40
2009,06,28,06,33,9.40
2009,06,28,06,34,9.40
2009,06,28,06,35,9.40
2009,06,28,06,36,9.40
2009,06,28,06,37,9.50
2009,06,28,06,38,9.50
2009,06,28,06,39,9.50
2009,06,28,06,40,9.60
2009,06,28,06,41,9.60
2009,06,28,06,42,9.60
2009,06,28,06,43,9.60
2009,06,28,06,44,9.60
2009,06,28,06,45,9.60
2009,06,28,06,46,9.60
2009,06,28,06,47,9.60
2009,06,28,06,48,9.60
2009,06,28,06,49,9.70
2009,06,28,06,50,9.70
2009,06,28,06,51,9.70
2009,06,28,06,52,9.70
2009,06,28,06,53,9.70
2009,06,28,06,54,9.70
2009,06,28,06,55,9.80
2009,06,28,06,56,9.80
2009,06,28,06,57,9.80
2009,06,28,06,58,9.80
2009,06,28,06,59,9.80
2009,06,28,07,00,9.80
2009,06,28,07,01,9.90
2009,06,28,07,02,9.90
2009,06,28,07,03,9.90
2009,06,28,07,04,9.90
2009,06,28,07,05,10.00
2009,06,28,07,06,10.00
2009,06,28,07,07,10.00
2009,06,28,07,08,10.10
2009,06,28,07,09,10.10
2009,06,28,07,10,10.10
2009,06,28,07,11,10.10
2009,06,28,07,12,10.10
2009,06,28,07,13,10.10
2009,06,28,07,14,10.10
2009,06,28,07,15,10.00
2009,06,28,07,16,9.90
2009,06,28,07,17,9.90
2009,06,28,07,18,9.90
2009,06,28,07,19,9.90
2009,06,28,07,20,9.80
2009,06,28,07,21,9.80
2009,06,28,07,22,9.80
2009,06,28,07,23,9.80
2009,06,28,07,24,9.80
2009,06,28,07,25,9.70
2009,06,28,07,26,9.70
2009,06,28,07,27,9.70
2009,06,28,07,28,9.70
2009,06,28,07,29,9.80
2009,06,28,07,30,9.70
2009,06,28,07,31,9.70
2009,06,28,07,32,9.80
2009,06,28,07,33,9.80
2009,06,28,07,34,9.80
2009,06,28,07,35,9.80
2009,06,28,07,36,9.80
2009,06,28,07,37,9.90
2009,06,28,07,38,9.90
2009,06,28,07,39,9.90
2009,06,28,07,40,9.90
2009,06,28,07,41,10.00
2009,06,28,07,42,10.00
2009,06,28,07,43,10.10
2009,06,28,07,44,10.10
2009,06,28,07,45,10.20
2009,06,28,07,46,10.20
2009,06,28,07,47,10.20
2009,06,28,07,48,10.30
2009,06,28,07,49,10.30
2009,06,28,07,50,10.40
2009,06,28,07,51,10.50
2009,06,28,07,52,10.60
2009,06,28,07,53,10.60
2009,06,28,07,54,10.70
2009,06,28,07,55,10.80
2009,06,28,07,56,10.80
2009,06,28,07,57,10.80
2009,06,28,07,58,10.90
2009,06,28,07,59,11.00
2009,06,28,08,00,11.10
2009,06,28,08,01,11.10
2009,06,28,08,02,11.20
2009,06,28,08,03,11.20
2009,06,28,08,04,11.30
2009,06,28,08,05,11.30
2009,06,28,08,06,11.30
2009,06,28,08,07,11.40
2009,06,28,08,08,11.40
2009,06,28,08,09,11.50
2009,06,28,08,10,11.60
2009,06,28,08,11,11.60
2009,06,28,08,12,11.70
2009,06,28,08,13,11.70
2009,06,28,08,14,11.70
2009,06,28,08,15,11.80
2009,06,28,08,16,11.80
2009,06,28,08,17,11.80
2009,06,28,08,18,11.80
2009,06,28,08,19,11.90
2009,06,28,08,20,11.90
2009,06,28,08,21,11.90
2009,06,28,08,22,11.90
2009,06,28,08,23,11.90
2009,06,28,08,24,11.90
2009,06,28,08,25,11.90
2009,06,28,08,27,12.00
2009,06,28,08,28,12.00
2009,06,28,08,29,12.10
2009,06,28,08,30,12.10
2009,06,28,08,31,12.10
2009,06,28,08,32,12.10
2009,06,28,08,33,12.10
2009,06,28,08,34,12.10
2009,06,28,08,35,12.10
2009,06,28,08,36,12.10
2009,06,28,08,37,12.20
2009,06,28,08,38,12.20
2009,06,28,08,39,12.20
2009,06,28,08,40,12.20
2009,06,28,08,41,12.20
2009,06,28,08,42,12.20
2009,06,28,08,43,12.20
2009,06,28,08,44,12.20
2009,06,28,08,45,12.20
2009,06,28,08,46,12.20
2009,06,28,08,47,12.20
2009,06,28,08,48,12.20
2009,06,28,08,49,12.30
2009,06,28,08,50,12.30
2009,06,28,08,51,12.30
2009,06,28,08,52,12.40
2009,06,28,08,53,12.40
2009,06,28,08,54,12.40
2009,06,28,08,55,12.50
2009,06,28,08,56,12.60
2009,06,28,08,57,12.60
2009,06,28,08,58,12.70
2009,06,28,08,59,12.70
2009,06,28,09,00,12.80
2009,06,28,09,01,12.80
2009,06,28,09,02,12.80
2009,06,28,09,03,12.90
2009,06,28,09,04,12.90
2009,06,28,09,05,13.00
2009,06,28,09,06,13.10
2009,06,28,09,07,13.10
2009,06,28,09,08,13.20
2009,06,28,09,09,13.20
2009,06,28,09,10,13.20
2009,06,28,09,11,13.20
2009,06,28,09,12,13.20
2009,06,28,09,13,13.30
2009,06,28,09,14,13.30
2009,06,28,09,15,13.30
2009,06,28,09,16,13.30
2009,06,28,09,17,13.30
2009,06,28,09,18,13.30
2009,06,28,09,19,13.30
2009,06,28,09,20,13.30
2009,06,28,09,21,13.30
2009,06,28,09,22,13.30
2009,06,28,09,23,13.20
2009,06,28,09,24,13.30
2009,06,28,09,25,13.30
2009,06,28,09,26,13.30
2009,06,28,09,27,13.30
2009,06,28,09,28,13.30
2009,06,28,09,29,13.30
2009,06,28,09,30,13.20
2009,06,28,09,31,13.20
2009,06,28,09,32,13.20
2009,06,28,09,33,13.20
2009,06,28,09,34,13.20
2009,06,28,09,35,13.20
2009,06,28,09,36,13.30
2009,06,28,09,37,13.30
2009,06,28,09,38,13.30
2009,06,28,09,39,13.40
2009,06,28,09,40,13.40
2009,06,28,09,41,13.50
2009,06,28,09,42,13.60
2009,06,28,09,43,13.70
2009,06,28,09,44,13.80
2009,06,28,09,45,13.90
2009,06,28,09,46,14.00
2009,06,28,09,47,14.10
2009,06,28,09,48,14.20
2009,06,28,09,49,14.20
2009,06,28,09,50,14.30
2009,06,28,09,51,14.30
2009,06,28,09,52,14.40
2009,06,28,09,53,14.50
2009,06,28,09,54,14.60
2009,06,28,09,55,14.70
2009,06,28,09,56,14.70
2009,06,28,09,57,14.80
2009,06,28,09,58,14.80
2009,06,28,09,59,15.00
2009,06,28,10,00,15.00
2009,06,28,10,01,15.00
2009,06,28,10,02,15.00
2009,06,28,10,03,15.10
2009,06,28,10,04,15.20
2009,06,28,10,05,15.30
2009,06,28,10,06,15.30
2009,06,28,10,07,15.30
2009,06,28,10,08,15.40
2009,06,28,10,09,15.40
2009,06,28,10,10,15.50
2009,06,28,10,11,15.60
2009,06,28,10,12,15.70
2009,06,28,10,13,15.70
2009,06,28,10,14,15.80
2009,06,28,10,15,15.80
2009,06,28,10,16,15.90
2009,06,28,10,17,15.90
2009,06,28,10,18,15.90
2009,06,28,10,19,15.90
2009,06,28,10,20,16.00
2009,06,28,10,21,16.10
2009,06,28,10,22,16.00
2009,06,28,10,23,16.00
2009,06,28,10,24,16.00
2009,06,28,10,25,15.90
2009,06,28,10,26,15.90
2009,06,28,10,27,15.90
2009,06,28,10,28,15.90
2009,06,28,10,29,15.80
2009,06,28,10,30,15.80
2009,06,28,10,31,15.80
2009,06,28,10,32,15.80
2009,06,28,10,33,15.80
2009,06,28,10,34,15.70
2009,06,28,10,35,15.60
2009,06,28,10,36,15.60
2009,06,28,10,37,15.40
2009,06,28,10,38,15.40
2009,06,28,10,39,15.40
2009,06,28,10,40,15.40
2009,06,28,10,41,15.30
2009,06,28,10,42,15.20
2009,06,28,10,43,15.00
2009,06,28,10,44,15.00
2009,06,28,10,45,15.00
2009,06,28,10,46,15.00
2009,06,28,10,47,14.90
2009,06,28,10,48,14.90
2009,06,28,10,49,14.80
2009,06,28,10,50,14.90
2009,06,28,10,51,15.00
2009,06,28,10,52,15.00
2009,06,28,10,53,15.00
2009,06,28,10,54,15.10
2009,06,28,10,55,15.30
2009,06,28,10,56,15.30
2009,06,28,10,57,15.40
2009,06,28,10,58,15.50
2009,06,28,10,59,15.60
2009,06,28,11,00,15.60
2009,06,28,11,01,15.40
2009,06,28,11,02,15.40
2009,06,28,11,03,15.40
2009,06,28,11,04,15.40
2009,06,28,11,05,15.50
2009,06,28,11,06,15.50
2009,06,28,11,07,15.60
2009,06,28,11,08,15.60
2009,06,28,11,09,15.60
2009,06,28,11,10,15.70
2009,06,28,11,11,15.70
2009,06,28,11,12,15.80
2009,06,28,11,13,15.90
2009,06,28,11,14,16.00
2009,06,28,11,15,16.10
2009,06,28,11,16,16.20
2009,06,28,11,17,16.30
2009,06,28,11,18,16.30
2009,06,28,11,19,16.40
2009,06,28,11,20,16.40
2009,06,28,11,21,16.40
2009,06,28,11,22,16.40
2009,06,28,11,23,16.40
2009,06,28,11,24,16.40
2009,06,28,11,25,16.30
2009,06,28,11,26,16.10
2009,06,28,11,27,15.90
2009,06,28,11,28,15.80
2009,06,28,11,29,15.80
2009,06,28,11,30,15.80
2009,06,28,11,31,15.80
2009,06,28,11,32,15.80
2009,06,28,11,33,15.90
2009,06,28,11,34,15.90
2009,06,28,11,35,15.90
2009,06,28,11,36,15.90
2009,06,28,11,37,15.90
2009,06,28,11,38,15.90
2009,06,28,11,39,15.90
2009,06,28,11,40,16.00
2009,06,28,11,41,16.10
2009,06,28,11,42,16.20
2009,06,28,11,43,16.20
2009,06,28,11,44,16.30
2009,06,28,11,45,16.40
2009,06,28,11,46,16.60
2009,06,28,11,47,16.70
2009,06,28,11,48,16.80
2009,06,28,11,49,16.90
2009,06,28,11,50,16.90
2009,06,28,11,51,17.00
2009,06,28,11,52,17.10
2009,06,28,11,53,17.20
2009,06,28,11,54,17.40
2009,06,28,11,55,17.40
2009,06,28,11,56,17.60
2009,06,28,11,57,17.70
2009,06,28,11,58,17.70
2009,06,28,11,59,17.80
2009,06,28,12,00,17.90
2009,06,28,12,01,18.10
2009,06,28,12,02,18.20
2009,06,28,12,03,18.20
2009,06,28,12,04,18.30
2009,06,28,12,05,18.40
2009,06,28,12,06,18.50
2009,06,28,12,07,18.60
2009,06,28,12,08,18.70
2009,06,28,12,09,18.70
2009,06,28,12,10,18.80
2009,06,28,12,11,18.90
2009,06,28,12,12,18.90
2009,06,28,12,13,19.00
2009,06,28,12,14,19.10
2009,06,28,12,15,19.10
2009,06,28,12,16,19.20
2009,06,28,12,17,19.20
2009,06,28,12,18,19.20
2009,06,28,12,19,19.20
2009,06,28,12,20,19.30
2009,06,28,12,21,19.40
2009,06,28,12,22,19.40
2009,06,28,12,23,19.40
2009,06,28,12,24,19.50
2009,06,28,12,25,19.50
2009,06,28,12,26,19.60
2009,06,28,12,27,19.60
2009,06,28,12,28,19.60
2009,06,28,12,29,19.70
2009,06,28,12,30,19.70
2009,06,28,12,31,19.70
2009,06,28,12,32,19.70
2009,06,28,12,33,19.70
2009,06,28,12,34,19.60
2009,06,28,12,35,19.50
2009,06,28,12,36,19.50
2009,06,28,12,37,19.50
2009,06,28,12,38,19.60
2009,06,28,12,39,19.50
2009,06,28,12,40,19.50
2009,06,28,12,41,19.50
2009,06,28,12,42,19.60
2009,06,28,12,43,19.60
2009,06,28,12,44,19.70
2009,06,28,12,45,19.70
2009,06,28,12,46,19.80
2009,06,28,12,47,19.80
2009,06,28,12,48,19.90
2009,06,28,12,49,19.80
2009,06,28,12,50,19.70
2009,06,28,12,51,19.60
2009,06,28,12,52,19.60
2009,06,28,12,53,19.60
2009,06,28,12,54,19.60
2009,06,28,12,55,19.70
2009,06,28,12,56,19.70
2009,06,28,12,57,19.70
2009,06,28,12,58,19.80
2009,06,28,12,59,19.70
2009,06,28,13,00,19.70
2009,06,28,13,01,19.70
2009,06,28,13,02,19.70
2009,06,28,13,03,19.70
2009,06,28,13,04,19.80
2009,06,28,13,05,19.80
2009,06,28,13,06,19.90
2009,06,28,13,09,20.10
2009,06,28,13,10,20.20
2009,06,28,13,11,20.20
2009,06,28,13,12,20.30
2009,06,28,13,13,20.30
2009,06,28,13,14,20.40
2009,06,28,13,15,20.50
2009,06,28,13,16,20.60
2009,06,28,13,17,20.70
2009,06,28,13,18,20.70
2009,06,28,13,19,20.80
2009,06,28,13,20,20.80
2009,06,28,13,21,20.80
2009,06,28,13,22,20.80
2009,06,28,13,23,20.60
2009,06,28,13,24,20.40
2009,06,28,13,25,20.40
2009,06,28,13,26,20.40
2009,06,28,13,27,20.50
2009,06,28,13,28,20.60
2009,06,28,13,29,20.60
2009,06,28,13,30,20.60
2009,06,28,13,31,20.60
2009,06,28,13,32,20.60
2009,06,28,13,33,20.50
2009,06,28,13,34,20.40
2009,06,28,13,35,20.40
2009,06,28,13,36,20.50
2009,06,28,13,37,20.50
2009,06,28,13,38,20.60
2009,06,28,13,39,20.70
2009,06,28,13,40,20.70
2009,06,28,13,41,20.80
2009,06,28,13,42,20.80
2009,06,28,13,43,20.80
2009,06,28,13,44,20.90
2009,06,28,13,45,21.00
2009,06,28,13,46,21.10
2009,06,28,13,47,21.10
2009,06,28,13,48,21.20
2009,06,28,13,49,21.20
2009,06,28,13,50,21.30
2009,06,28,13,51,21.40
2009,06,28,13,52,21.50
2009,06,28,13,53,21.60
2009,06,28,13,54,21.60
2009,06,28,13,55,21.70
2009,06,28,13,56,21.80
2009,06,28,13,57,21.80
2009,06,28,13,58,21.90
2009,06,28,13,59,22.00
2009,06,28,14,00,22.10
2009,06,28,14,01,22.20
2009,06,28,14,02,22.20
2009,06,28,14,03,22.20
2009,06,28,14,04,22.20
2009,06,28,14,05,22.20
2009,06,28,14,06,22.20
2009,06,28,14,07,22.20
2009,06,28,14,08,22.20
2009,06,28,14,09,22.20
2009,06,28,14,10,22.30
2009,06,28,14,11,22.30
2009,06,28,14,12,22.30
2009,06,28,14,13,22.30
2009,06,28,14,14,22.30
2009,06,28,14,15,22.30
2009,06,28,14,16,22.30
2009,06,28,14,17,22.30
2009,06,28,14,18,22.40
2009,06,28,14,19,22.40
2009,06,28,14,20,22.40
2009,06,28,14,21,22.40
2009,06,28,14,22,22.40
2009,06,28,14,23,22.40
2009,06,28,14,24,22.40
2009,06,28,14,25,22.40
2009,06,28,14,26,22.40
2009,06,28,14,27,22.50
2009,06,28,14,28,22.60
2009,06,28,14,29,22.60
2009,06,28,14,30,22.70
2009,06,28,14,31,22.70
2009,06,28,14,32,22.80
2009,06,28,14,33,22.80
2009,06,28,14,34,22.90
2009,06,28,14,35,22.80
2009,06,28,14,36,22.60
2009,06,28,14,37,22.30
2009,06,28,14,38,22.00
2009,06,28,14,39,21.80
2009,06,28,14,40,21.60
2009,06,28,14,41,21.40
2009,06,28,14,42,21.30
2009,06,28,14,43,21.20
2009,06,28,14,44,21.20
2009,06,28,14,45,21.20
2009,06,28,14,46,21.30
2009,06,28,14,47,21.30
2009,06,28,14,48,21.30
2009,06,28,14,49,21.40
2009,06,28,14,50,21.50
2009,06,28,14,51,21.60
2009,06,28,14,52,21.80
2009,06,28,14,53,21.80
2009,06,28,14,54,21.90
2009,06,28,14,55,22.00
2009,06,28,14,56,22.00
2009,06,28,14,57,21.90
2009,06,28,14,58,21.80
2009,06,28,14,59,21.80
2009,06,28,15,00,21.90
2009,06,28,15,01,22.00
2009,06,28,15,02,22.10
2009,06,28,15,03,22.20
2009,06,28,15,04,22.20
2009,06,28,15,05,22.20
2009,06,28,15,06,22.30
2009,06,28,15,07,22.40
2009,06,28,15,08,22.50
2009,06,28,15,09,22.60
2009,06,28,15,10,22.70
2009,06,28,15,11,22.70
2009,06,28,15,12,22.80
2009,06,28,15,13,22.80
2009,06,28,15,14,22.90
2009,06,28,15,15,22.90
2009,06,28,15,16,23.00
2009,06,28,15,17,23.10
2009,06,28,15,18,23.20
2009,06,28,15,19,23.20
2009,06,28,15,20,23.20
2009,06,28,15,21,23.20
2009,06,28,15,22,23.10
2009,06,28,15,23,23.10
2009,06,28,15,24,23.20
2009,06,28,15,25,23.20
2009,06,28,15,26,23.30
2009,06,28,15,27,23.30
2009,06,28,15,28,23.30
2009,06,28,15,29,23.30
2009,06,28,15,30,23.40
2009,06,28,15,31,23.40
2009,06,28,15,32,23.60
2009,06,28,15,33,23.70
2009,06,28,15,34,23.70
2009,06,28,15,35,23.80
2009,06,28,15,36,23.80
2009,06,28,15,37,23.80
2009,06,28,15,38,23.80
2009,06,28,15,39,23.90
2009,06,28,15,40,23.90
2009,06,28,15,41,24.10
2009,06,28,15,42,24.10
2009,06,28,15,43,24.00
2009,06,28,15,44,23.90
2009,06,28,15,45,23.90
2009,06,28,15,46,23.90
2009,06,28,15,47,23.90
2009,06,28,15,48,23.80
2009,06,28,15,49,23.80
2009,06,28,15,50,23.80
2009,06,28,15,51,23.80
2009,06,28,15,52,23.80
2009,06,28,15,53,23.90
2009,06,28,15,54,23.80
2009,06,28,15,55,23.70
2009,06,28,15,56,23.40
2009,06,28,15,57,23.30
2009,06,28,15,58,23.20
2009,06,28,15,59,23.20
2009,06,28,16,00,23.20
2009,06,28,16,01,23.20
2009,06,28,16,02,23.30
2009,06,28,16,03,23.30
2009,06,28,16,04,23.40
2009,06,28,16,05,23.50
2009,06,28,16,06,23.50
2009,06,28,16,07,23.60
2009,06,28,16,08,23.60
2009,06,28,16,09,23.70
2009,06,28,16,10,23.70
2009,06,28,16,11,23.70
2009,06,28,16,12,23.80
2009,06,28,16,13,23.90
2009,06,28,16,14,23.90
2009,06,28,16,15,24.00
2009,06,28,16,16,24.00
2009,06,28,16,17,23.90
2009,06,28,16,18,23.80
2009,06,28,16,19,23.70
2009,06,28,16,21,23.60
2009,06,28,16,22,23.60
2009,06,28,16,23,23.60
2009,06,28,16,24,23.70
2009,06,28,16,25,23.70
2009,06,28,16,26,23.80
2009,06,28,16,27,23.90
2009,06,28,16,28,24.00
2009,06,28,16,29,24.10
2009,06,28,16,30,24.20
2009,06,28,16,31,24.30
2009,06,28,16,32,24.40
2009,06,28,16,33,24.50
2009,06,28,16,34,24.60
2009,06,28,16,35,24.60
2009,06,28,16,36,24.60
2009,06,28,16,37,24.70
2009,06,28,16,38,24.70
2009,06,28,16,39,24.70
2009,06,28,16,40,24.70
2009,06,28,16,41,24.70
2009,06,28,16,42,24.80
2009,06,28,16,43,24.80
2009,06,28,16,44,24.80
2009,06,28,16,45,24.90
2009,06,28,16,46,24.90
2009,06,28,16,47,24.90
2009,06,28,16,48,24.90
2009,06,28,16,49,24.90
2009,06,28,16,50,24.90
2009,06,28,16,51,24.90
2009,06,28,16,52,24.90
2009,06,28,16,53,24.90
2009,06,28,16,54,24.90
2009,06,28,16,55,24.90
2009,06,28,16,56,24.90
2009,06,28,16,57,25.00
2009,06,28,16,58,25.10
2009,06,28,16,59,25.10
2009,06,28,17,00,25.10
2009,06,28,17,01,25.10
2009,06,28,17,02,25.10
2009,06,28,17,03,25.10
2009,06,28,17,04,25.10
2009,06,28,17,05,25.00
2009,06,28,17,06,25.00
2009,06,28,17,07,25.00
2009,06,28,17,08,24.90
2009,06,28,17,09,24.80
2009,06,28,17,10,24.80
2009,06,28,17,11,24.70
2009,06,28,17,12,24.70
2009,06,28,17,13,24.60
2009,06,28,17,14,24.60
2009,06,28,17,15,24.50
2009,06,28,17,16,24.40
2009,06,28,17,17,24.40
2009,06,28,17,18,24.30
2009,06,28,17,19,24.30
2009,06,28,17,20,24.30
2009,06,28,17,21,24.30
2009,06,28,17,22,24.30
2009,06,28,17,23,24.30
2009,06,28,17,24,24.30
2009,06,28,17,25,24.10
2009,06,28,17,26,24.00
2009,06,28,17,27,23.90
2009,06,28,17,28,23.80
2009,06,28,17,29,23.70
2009,06,28,17,30,23.70
2009,06,28,17,31,23.70
2009,06,28,17,32,23.70
2009,06,28,17,33,23.60
2009,06,28,17,34,23.60
2009,06,28,17,35,23.50
2009,06,28,17,36,23.40
2009,06,28,17,37,23.40
2009,06,28,17,38,23.30